Météo par heure à Kyslychuvata

Ce jour, 25 Juillet, Dimanche

Heure Température Précipitation Vent Pression Humidité
00:00 +21°C° 0 mm 2 m/s 755 mmHg 55%
01:00 +21°C° 0 mm 2 m/s 755 mmHg 57%
02:00 +20°C° 0 mm 2 m/s 755 mmHg 60%
03:00 +20°C° 0 mm 2 m/s 755 mmHg 62%
04:00 +20°C° 0 mm 2 m/s 755 mmHg 64%
05:00 +20°C° 0 mm 3 m/s 755 mmHg 66%
06:00 +22°C° 0 mm 3 m/s 756 mmHg 60%
07:00 +25°C° 0 mm 3 m/s 756 mmHg 55%
08:00 +27°C° 0 mm 3 m/s 756 mmHg 49%
09:00 +28°C° 0 mm 3 m/s 756 mmHg 44%
10:00 +30°C° 0 mm 3 m/s 756 mmHg 39%
11:00 +31°C° 0 mm 3 m/s 756 mmHg 34%
12:00 +31°C° 0 mm 3 m/s 756 mmHg 33%
13:00 +33°C° 0 mm 3 m/s 756 mmHg 32%
14:00 +33°C° 0 mm 3 m/s 756 mmHg 31%
15:00 +31°C° 0 mm 3 m/s 756 mmHg 34%
16:00 +30°C° 0 mm 2 m/s 756 mmHg 37%
17:00 +29°C° 0 mm 2 m/s 756 mmHg 40%
18:00 +29°C° 0 mm 3 m/s 756 mmHg 43%
19:00 +28°C° 0 mm 3 m/s 756 mmHg 46%
20:00 +27°C° 0 mm 4 m/s 757 mmHg 49%
21:00 +26°C° 0 mm 4 m/s 757 mmHg 51%
22:00 +25°C° 0 mm 4 m/s 757 mmHg 53%
23:00 +23°C° 0 mm 4 m/s 757 mmHg 54%

Demain, 26 Juillet, Lundi

Heure Température Précipitation Vent Pression Humidité
00:00 +23°C° 0 mm 4 m/s 757 mmHg 57%
01:00 +22°C° 0 mm 3 m/s 757 mmHg 59%
02:00 +22°C° 0 mm 3 m/s 757 mmHg 62%
03:00 +21°C° 0 mm 3 m/s 757 mmHg 63%
04:00 +21°C° 0 mm 3 m/s 757 mmHg 65%
05:00 +21°C° 0 mm 4 m/s 757 mmHg 67%
06:00 +23°C° 0 mm 4 m/s 757 mmHg 61%
07:00 +25°C° 0 mm 4 m/s 758 mmHg 55%
08:00 +27°C° 0 mm 5 m/s 758 mmHg 48%
09:00 +29°C° 0 mm 5 m/s 758 mmHg 44%
10:00 +30°C° 0 mm 4 m/s 758 mmHg 39%
11:00 +33°C° 0 mm 4 m/s 758 mmHg 34%
12:00 +33°C° 0 mm 4 m/s 757 mmHg 32%
13:00 +34°C° 0 mm 4 m/s 757 mmHg 30%
14:00 +34°C° 0 mm 3 m/s 757 mmHg 28%
15:00 +34°C° 0 mm 3 m/s 757 mmHg 30%
16:00 +34°C° 0 mm 3 m/s 757 mmHg 31%
17:00 +34°C° 0 mm 3 m/s 757 mmHg 32%
18:00 +31°C° 0 mm 3 m/s 757 mmHg 37%
19:00 +29°C° 0 mm 3 m/s 757 mmHg 42%
20:00 +27°C° 0 mm 4 m/s 757 mmHg 48%
21:00 +26°C° 0 mm 4 m/s 757 mmHg 48%
22:00 +26°C° 0 mm 4 m/s 757 mmHg 49%
23:00 +25°C° 0 mm 4 m/s 757 mmHg 49%

Après-demain, 27 Juillet, Mardi

Heure Température Précipitation Vent Pression Humidité
00:00 +25°C° 0 mm 3 m/s 757 mmHg 51%
01:00 +24°C° 0 mm 3 m/s 757 mmHg 52%
02:00 +24°C° 0 mm 3 m/s 757 mmHg 54%
03:00 +22°C° 0 mm 3 m/s 757 mmHg 56%
04:00 +22°C° 0 mm 3 m/s 757 mmHg 58%
05:00 +21°C° 0 mm 3 m/s 758 mmHg 60%
06:00 +24°C° 0 mm 3 m/s 758 mmHg 55%
07:00 +26°C° 0 mm 3 m/s 758 mmHg 50%
08:00 +28°C° 0 mm 3 m/s 758 mmHg 45%
09:00 +30°C° 0 mm 3 m/s 758 mmHg 42%
10:00 +31°C° 0 mm 3 m/s 757 mmHg 38%
11:00 +34°C° 0 mm 3 m/s 757 mmHg 34%
12:00 +34°C° 0 mm 3 m/s 757 mmHg 32%
13:00 +35°C° 0 mm 3 m/s 757 mmHg 30%
14:00 +35°C° 0 mm 3 m/s 757 mmHg 29%
15:00 +34°C° 0 mm 3 m/s 757 mmHg 31%
16:00 +34°C° 0 mm 3 m/s 757 mmHg 33%
17:00 +33°C° 0 mm 3 m/s 757 mmHg 35%
18:00 +30°C° 0 mm 3 m/s 757 mmHg 40%
19:00 +29°C° 0 mm 3 m/s 757 mmHg 46%
20:00 +27°C° 0 mm 3 m/s 757 mmHg 52%
21:00 +27°C° 0 mm 3 m/s 757 mmHg 54%
22:00 +26°C° 0 mm 3 m/s 757 mmHg 56%
23:00 +26°C° 0 mm 3 m/s 757 mmHg 58%

28 Juillet, Mercredi

Heure Température Précipitation Vent Pression Humidité
00:00 +25°C° 0 mm 3 m/s 757 mmHg 59%
01:00 +25°C° 0 mm 2 m/s 757 mmHg 59%
02:00 +25°C° 0 mm 2 m/s 757 mmHg 60%
03:00 +25°C° 0 mm 2 m/s 757 mmHg 60%
04:00 +24°C° 0 mm 2 m/s 757 mmHg 61%
05:00 +24°C° 0 mm 2 m/s 757 mmHg 61%
06:00 +26°C° 0 mm 2 m/s 757 mmHg 57%
07:00 +27°C° 0 mm 3 m/s 757 mmHg 52%
08:00 +29°C° 0 mm 4 m/s 757 mmHg 47%
09:00 +30°C° 0 mm 4 m/s 757 mmHg 44%
10:00 +32°C° 0 mm 4 m/s 757 mmHg 40%
11:00 +34°C° 0 mm 4 m/s 756 mmHg 36%
12:00 +34°C° 0 mm 4 m/s 756 mmHg 35%
13:00 +35°C° 0 mm 4 m/s 756 mmHg 33%
14:00 +35°C° 0 mm 3 m/s 755 mmHg 32%
15:00 +35°C° 0 mm 3 m/s 755 mmHg 34%
16:00 +35°C° 0 mm 3 m/s 755 mmHg 35%
17:00 +34°C° 0 mm 3 m/s 754 mmHg 37%
18:00 +33°C° 0 mm 4 m/s 754 mmHg 41%
19:00 +30°C° 0 mm 4 m/s 754 mmHg 46%
20:00 +28°C° 0 mm 5 m/s 754 mmHg 50%
21:00 +28°C° 0 mm 4 m/s 754 mmHg 52%
22:00 +27°C° 0 mm 4 m/s 754 mmHg 54%
23:00 +26°C° 0 mm 4 m/s 754 mmHg 56%

29 Juillet, Jeudi

Heure Température Précipitation Vent Pression Humidité
00:00 +25°C° 0 mm 3 m/s 754 mmHg 57%
01:00 +24°C° 0 mm 3 m/s 754 mmHg 58%
02:00 +24°C° 0 mm 3 m/s 754 mmHg 60%
03:00 +24°C° 0 mm 3 m/s 754 mmHg 62%
04:00 +23°C° 0 mm 2 m/s 754 mmHg 65%
05:00 +23°C° 0 mm 2 m/s 754 mmHg 67%
06:00 +25°C° 0 mm 2 m/s 754 mmHg 63%
07:00 +27°C° 0 mm 2 m/s 754 mmHg 58%
08:00 +29°C° 0 mm 3 m/s 754 mmHg 54%
09:00 +30°C° 0 mm 3 m/s 754 mmHg 50%
10:00 +31°C° 0 mm 3 m/s 754 mmHg 47%
11:00 +34°C° 0 mm 3 m/s 754 mmHg 44%
12:00 +34°C° 0 mm 2 m/s 753 mmHg 41%
13:00 +35°C° 0 mm 2 m/s 753 mmHg 38%
14:00 +36°C° 0 mm 2 m/s 753 mmHg 35%
15:00 +36°C° 0 mm 2 m/s 752 mmHg 35%
16:00 +36°C° 0 mm 2 m/s 752 mmHg 35%
17:00 +36°C° 0 mm 2 m/s 752 mmHg 36%
18:00 +34°C° 0 mm 2 m/s 752 mmHg 40%
19:00 +31°C° 0 mm 2 m/s 752 mmHg 45%
20:00 +29°C° 0 mm 2 m/s 752 mmHg 50%
21:00 +28°C° 0 mm 2 m/s 753 mmHg 51%
22:00 +28°C° 0 mm 2 m/s 753 mmHg 53%
23:00 +27°C° 0 mm 2 m/s 753 mmHg 54%

30 Juillet, Vendredi

Heure Température Précipitation Vent Pression Humidité
00:00 +27°C° 0.1 mm 1 m/s 753 mmHg 56%
01:00 +26°C° 0.1 mm 1 m/s 752 mmHg 58%
02:00 +26°C° 0.1 mm 1 m/s 752 mmHg 60%
03:00 +26°C° 0 mm 1 m/s 753 mmHg 60%
04:00 +26°C° 0 mm 1 m/s 753 mmHg 61%
05:00 +26°C° 0 mm 1 m/s 753 mmHg 62%
06:00 +27°C° 0 mm 1 m/s 753 mmHg 57%
07:00 +29°C° 0 mm 1 m/s 753 mmHg 51%
08:00 +31°C° 0 mm 2 m/s 753 mmHg 46%
09:00 +32°C° 0 mm 2 m/s 753 mmHg 42%
10:00 +34°C° 0 mm 2 m/s 753 mmHg 39%
11:00 +36°C° 0 mm 2 m/s 753 mmHg 36%
12:00 +36°C° 0 mm 2 m/s 753 mmHg 35%
13:00 +36°C° 0 mm 2 m/s 752 mmHg 34%
14:00 +37°C° 0 mm 2 m/s 752 mmHg 33%
15:00 +36°C° 0 mm 2 m/s 752 mmHg 34%
16:00 +35°C° 0 mm 2 m/s 752 mmHg 36%
17:00 +35°C° 0 mm 2 m/s 752 mmHg 38%
18:00 +32°C° 0.1 mm 2 m/s 752 mmHg 43%
19:00 +30°C° 0.1 mm 2 m/s 752 mmHg 49%
20:00 +29°C° 0.1 mm 2 m/s 752 mmHg 54%
21:00 +28°C° 0 mm 2 m/s 752 mmHg 54%
22:00 +28°C° 0 mm 2 m/s 752 mmHg 54%
23:00 +28°C° 0 mm 1 m/s 752 mmHg 54%
Voir plus

Nous avons besoin de votre consentement

Meteoprog et ses fournisseurs de services peuvent stocker et accéder à des données personnelles telles que des cookies, des identifiants d'appareils ou d'autres technologies similaires sur votre appareil et traiter ces données pour personnaliser le contenu et les publicités, ainsi que pour fournir des fonctionnalités de médias sociaux et analyser le trafic.

  • Stocker et/ou accéder à des informations sur votre appareil

    Des cookies, des identifiants d'appareils ou d'autres informations peuvent être stockés ou accessibles sur votre appareil aux fins indiquées ci-dessus.

  • Annonces et contenus personnalisés, mesure des annonces et des contenus, connaissance de l'audience et développement de produits

    Les annonces et le contenu peuvent être personnalisés en fonction d'un profil. D'autres données peuvent être ajoutées pour mieux personnaliser les annonces et le contenu. Les performances des publicités et du contenu peuvent être mesurées. Il est possible d'obtenir des informations sur le public qui a vu les publicités et le contenu. Ces données peuvent être utilisées pour développer ou améliorer l'expérience de l'utilisateur, les systèmes et les logiciels.

En cliquant sur "J'accepte", vous autorisez l'utilisation de cookies, des identifiants d'appareils, des balises web ou d'autres technologies similaires. Vos paramètres peuvent être modifiés dans le navigateur de votre appareil.

Dans certains cas, des intérêts légitimes peuvent être invoqués plutôt qu'un consentement. Vous pouvez en savoir plus à ce sujet dans notre Politique de confidentialité et de cookies.